User: anonymous   Login
Location: Unspecified
(0.0000°N, 0.0000°E)
Time: 16:11:44
(UTC+00:00)
Language:

Cosmos 1249 - Orbit

View from above orbital plane
View from above orbital plane
View from above satellite
View from above satellite

Ground track
Ground track

The orbit data is extracted from the following two-line orbital elements,

1 12319U 81021A   18111.92679537 -.00000077 +00000-0 +10618-4 0  9993
2 12319 064.9649 339.3237 0046962 176.0935 184.0502 13.86603959881898
Epoch (UTC): 21 April 2018 22:14:35
Eccentricity: 0.0046962
inclination: 64.9649°
perigee height: 906 km
apogee height: 975 km
right ascension of ascending node: 339.3237°
argument of perigee: 176.0935°
revolutions per day: 13.86603959
mean anomaly at epoch: 184.0502°
orbit number at epoch: 88189

The dashed part of the orbit path shows where the satellite is in the earth's shadow,  

DLR